Winslow, AZ

5:24 AM MST on July 23, 2017 (GMT -0700)
Winslow-Lindbergh Regional

Weather History for KINW - October, 2013

Change the Weather History Date:

Friday, October 4, 2013

  Actual Average Record
Temperature  
Mean Temperature 51 °F 61 °F  
Max Temperature 64 °F 78 °F 89 °F (1980)
Min Temperature 38 °F 44 °F 32 °F (2002)
Degree Days  
Heating Degree Days 14 4  
Month to date heating degree days 20 16  
Since 1 July heating degree days 53 47  
Cooling Degree Days 0 1  
Month to date cooling degree days 0 4  
Year to date cooling degree days 1380 1205  
Growing Degree Days 2 (Base 50)    
Moisture  
Dew Point 15 °F    
Average Humidity 25    
Maximum Humidity 37    
Minimum Humidity 13    
Precipitation  
Precipitation 0.00 in 0.02 in 1.04 in (1972)
Month to date precipitation 0.00 0.08  
Year to date precipitation 6.63 5.49  
Sea Level Pressure  
Sea Level Pressure 30.06 in    
Wind  
Wind Speed 8 mph (NW)    
Max Wind Speed 17 mph    
Max Gust Speed 22 mph    
Visibility 10 miles    
Events      
T = Trace of Precipitation, MM = Missing Value Source: NWS Daily Summary

Daily Weather History Graph

Daily Weather History Graph

Search for Another Location

Airport or City:

Trip Planner

Search our weather history database for the weather conditions in past years. The results will help you decide how hot, cold, wet, or windy it might be!

Date:

Astronomy

Oct. 04, 2013 Rise Set
Actual Time 6:20 AM MST 6:02 PM MST
Civil Twilight 5:54 AM MST 6:27 PM MST
Nautical Twilight 5:25 AM MST 6:56 PM MST
Astronomical Twilight 4:56 AM MST 7:26 PM MST
Moon 5:58 AM MST (10/4) 5:48 PM MST (10/4)
Length of Visible Light 12h 32m
Length of Day
11h 41m
Waning Crescent, 0% of the Moon is Illuminated
Oct 4
Waning Crescent
Oct 4
New
Oct 11
First Quarter
Oct 18
Full
Oct 26
Last Quarter

Hourly Weather History & Observations

Time (MST) Temp. Windchill Dew Point Humidity Pressure Visibility Wind Dir Wind Speed Gust Speed Precip Events Conditions
12:56 AM 51.1 °F - 21.0 °F 31% 29.84 in 10.0 mi WNW 13.8 mph - N/A   Clear
1:56 AM 48.0 °F - 19.0 °F 32% 29.88 in 10.0 mi West 9.2 mph - N/A   Clear
2:56 AM 46.0 °F 40.6 °F 21.0 °F 37% 29.88 in 10.0 mi West 11.5 mph - N/A   Mostly Cloudy
3:56 AM 46.0 °F 40.6 °F 19.9 °F 35% 29.90 in 10.0 mi West 11.5 mph - N/A   Overcast
4:56 AM 43.0 °F 37.7 °F 17.1 °F 35% 29.94 in 10.0 mi West 9.2 mph - N/A   Clear
5:56 AM 43.0 °F 37.7 °F 14.0 °F 31% 29.98 in 10.0 mi WNW 9.2 mph - N/A   Clear
6:56 AM 43.0 °F 37.2 °F 15.1 °F 32% 30.02 in 10.0 mi NW 10.4 mph - N/A   Clear
7:56 AM 46.9 °F - 19.0 °F 33% 30.06 in 10.0 mi NNW 8.1 mph - N/A   Clear
8:56 AM 50.0 °F - 21.9 °F 33% 30.08 in 10.0 mi Calm Calm - N/A   Clear
9:56 AM 53.1 °F - 21.9 °F 30% 30.08 in 10.0 mi Variable 3.5 mph - N/A   Clear
10:56 AM 57.0 °F - 19.0 °F 23% 30.08 in 10.0 mi Variable 5.8 mph - N/A   Clear
11:56 AM 57.9 °F - 15.1 °F 19% 30.06 in 10.0 mi Variable 4.6 mph - N/A   Clear
12:56 PM 60.1 °F - 12.0 °F 15% 30.05 in 10.0 mi NNE 6.9 mph - N/A   Clear
1:56 PM 61.0 °F - 12.0 °F 15% 30.04 in 10.0 mi NW 6.9 mph 19.6 mph N/A   Clear
2:56 PM 63.0 °F - 10.0 °F 13% 30.04 in 10.0 mi NNW 9.2 mph - N/A   Clear
3:56 PM 63.0 °F - 10.9 °F 13% 30.03 in 10.0 mi NNW 11.5 mph - N/A   Clear
4:56 PM 62.1 °F - 10.9 °F 13% 30.05 in 10.0 mi NNW 10.4 mph - N/A   Clear
5:56 PM 57.9 °F - 12.9 °F 17% 30.08 in 10.0 mi NW 12.7 mph - N/A   Clear
6:56 PM 54.0 °F - 12.0 °F 19% 30.12 in 10.0 mi NW 8.1 mph - N/A   Clear
7:56 PM 53.1 °F - 10.9 °F 19% 30.15 in 10.0 mi North 12.7 mph - N/A   Clear
8:56 PM 50.0 °F - 12.0 °F 22% 30.19 in 10.0 mi North 5.8 mph - N/A   Clear
9:56 PM 46.9 °F - 12.0 °F 24% 30.21 in 10.0 mi Calm Calm - N/A   Clear
10:56 PM 39.0 °F 34.0 °F 10.9 °F 32% 30.24 in 10.0 mi WSW 6.9 mph - N/A   Clear
11:56 PM 37.9 °F 32.7 °F 12.9 °F 36% 30.26 in 10.0 mi West 6.9 mph - N/A   Clear